Regional Weather Roundup
Issued by NWS

Home | Current Version | Previous Version | Text Only | Print | Product List | Glossary On
Versions: 1 2 3 4 5 6 7 8 9 10 11 12 13 14 15 16 17 18 19 20 21 22 23 24 25 26 27 28 29 30 31 32 33 34 35 36 37 38 39 40 41 42 43 44 45 46 47 48 49 50
000
ASUS43 KMKX 062059
RWRWI

WISCONSIN REGIONAL WEATHER ROUNDUP
NATIONAL WEATHER SERVICE MILWAUKEE/SULLIVAN WI
300 PM CST FRI MAR 06 2015

NOTE: "FAIR" INDICATES FEW OR NO CLOUDS BELOW 12,000 FEET WITH NO
SIGNIFICANT WEATHER AND/OR OBSTRUCTIONS TO VISIBILITY.

WIZ001-002-006>008-014>016-023>028-062200-
NORTHWEST WISCONSIN

CITY           SKY/WX    TMP DP  RH WIND       PRES   REMARKS
SUPERIOR ARPT  SUNNY     34  14  44 W12       29.97F WCI  25
ASHLAND        SUNNY     33  13  43 W13G21    29.96S WCI  24
HAYWARD        SUNNY     32  11  41 VRB7      29.96F WCI  26
SIREN          SUNNY     33  14  46 W6        30.00F WCI  27
CUMBERLAND     SUNNY     30  12  47 W9        29.99S WCI  22
RICE LAKE      SUNNY     30  13  51 W12       30.02S WCI  20
CHETEK         SUNNY     30  13  49 W7        30.01S WCI  24
LADYSMITH      SUNNY     29  12  48 SW10      30.00S WCI  20
EAU CLAIRE     NOT AVBL
MENOMONIE      SUNNY     34  16  48 SW7       30.03S WCI  27
NEW RICHMOND   SUNNY     33  15  47 W15       30.02S WCI  23
OSCEOLA        SUNNY     35  16  46 NW8       30.04F WCI  28
$$

WIZ003>005-009-010-017-018-062200-
NORTH CENTRAL WISCONSIN

CITY           SKY/WX    TMP DP  RH WIND       PRES   REMARKS
MANITOWISH WTR SUNNY     27   8  46 W8        29.90S WCI  18
ARBOR VITAE    SUNNY     29  11  46 W13       29.91S WCI  18
WOODRUFF       SUNNY     29  11  46 W13       29.91S WCI  18
RHINELANDER    SUNNY     27  10  49 SW13G20   29.92S WCI  16
EAGLE RIVER    SUNNY     27   8  43 W14       29.89S WCI  16
LAND O LAKES   SUNNY     30   8  38 W10G17    29.89S WCI  21
PHILLIPS       SUNNY     25  10  52 SW8       29.93F WCI  16
TOMAHAWK       SUNNY     29  10  44 CALM      29.94S
MEDFORD        SUNNY     27  11  53 W9        29.96S WCI  17
MERRILL        SUNNY     27  11  51 W15       29.96F WCI  16
$$

WIZ029-030-035-036-043>047-062200-
CENTRAL WISCONSIN

CITY           SKY/WX    TMP DP  RH WIND       PRES   REMARKS
WAUSAU         SUNNY     28  11  48 SW10G20   29.95F WCI  19
MOSINEE        SUNNY     28  12  50 SW10      29.98F WCI  19
MARSHFIELD     SUNNY     31  13  47 SW10      29.98F WCI  22
STEVENS POINT  SUNNY     29  11  48 W6        30.00F WCI  23
WAUPACA        CLOUDY    34  13  42 SW10      30.02F WCI  26
WAUTOMA        NOT AVBL
WISC RAPIDS    SUNNY     31  12  45 SW14      30.01F WCI  21
CAMP DOUGLAS   NOT AVBL
$$

WIZ011>013-019>022-031-037>040-048>050-062200-
NORTHEAST WISCONSIN

CITY           SKY/WX    TMP DP  RH WIND       PRES   REMARKS
ANTIGO         SUNNY     25  12  56 SW16      29.94F WCI  12
SHAWANO        MOSUNNY   32  11  42 SW12G20   30.00F WCI  23
OCONTO         MOSUNNY   28  12  50 SW13G21   30.01F WCI  18
STURGEON BAY   CLOUDY    27  12  54 SW18G25   30.03F WCI  13
GREEN BAY      PTSUNNY   28  13  53 SW17G24   30.02F WCI  16
MANITOWOC      NOT AVBL
APPLETON       PTSUNNY   30  12  47 SW18G24   30.03F WCI  18
CLINTONVILLE   CLOUDY    30  12  47 SW13      30.01F WCI  20
OSHKOSH        CLOUDY    29  15  56 SW16G25   30.04F WCI  17
$$

WIZ032>034-041-042-053>061-062200-
SOUTHWEST WISCONSIN

CITY           SKY/WX    TMP DP  RH WIND       PRES   REMARKS
LA CROSSE      SUNNY     34  19  54 SW14      30.06S WCI  25
SPARTA         SUNNY     33  15  47 SW9G17    30.05F WCI  25
VIROQUA        SUNNY     30  17  59 SW16G22   30.05F WCI  18
BOSCOBEL       SUNNY     33  17  51 S12       30.11F WCI  24
PRAIRIE DU CHI SUNNY     32  17  53 SW7       30.12F WCI  26
PLATTEVILLE    SUNNY     29  18  63 S14       30.12F WCI  18
$$

WIZ056-057-062-063-064-067-068-062200-
SOUTH CENTRAL WISCONSIN

CITY           SKY/WX    TMP DP  RH WIND       PRES   REMARKS
REEDSBURG      PTSUNNY   30  16  55 SW14      30.07F WCI  19
BARABOO/DELLS  PTSUNNY   28  13  54 SW13G21   30.06F WCI  17
LONE ROCK      NOT AVBL
MINERAL POINT  SUNNY     30  18  59 S16       30.09F WCI  19
MADISON        PTSUNNY   28  13  53 SW13G22   30.10F WCI  17
MIDDLETON      CLOUDY    31  12  45 SW14G21   30.10F WCI  20
WATERTOWN      PTSUNNY   27  14  59 SW16G26   30.11S WCI  14
MONROE         SUNNY     28  18  64 SW16      30.13S WCI  17
JANESVILLE     SUNNY     28  16  59 S18G26    30.15F WCI  16
$$

WIZ051-052-058>065-066-070>072-062200-
SOUTHEAST WISCONSIN

CITY           SKY/WX    TMP DP  RH WIND       PRES   REMARKS
MILWAUKEE      PTSUNNY   26  11  52 SW25G31   30.14F WCI  11
WAUKESHA       MOSUNNY   25  10  54 SW18G24   30.13F WCI  11
MILWAUKEE/TIMM PTSUNNY   27  10  50 SW20G25   30.13F WCI  13
RACINE         CLOUDY    28  12  51 SW18G29   30.16F WCI  15
BURLINGTON     SUNNY     25  13  61 S20       30.16F WCI  11
KENOSHA        CLOUDY    27  13  55 SW22G35   30.16F WCI  13
FOND DU LAC    CLOUDY    27  12  53 SW22G29   30.06F WCI  13
SHEBOYGAN      CLOUDY    27  13  55 SW18      30.07F WCI  14
WEST BEND      CLOUDY    27  12  54 SW16G24   30.09F WCI  14
JUNEAU         PTSUNNY   25  13  58 S21       30.11F WCI  11
$$

LSZ147-162-062200-
LAKE SUPERIOR

STATION/POSITION TIME  TEMP    WIND        PRES    WAVE
                       AIR SEA DIR/SP/G            HT/PER
                 (UTC) (F)     (DEG/KT/KT) (MB)    (FT/S)
DEVILS ISLAND    2000   27     240/ 22/ 25 1014.3F
PORT WING        2040   31     240/ 10/ 19 1014.9F
SAXON HARBOR     2000   32     270/  7/ 14 1014.2
$$

LMZ867-665-643>646-062200-
LAKE MICHIGAN

STATION/POSITION TIME  TEMP    WIND        PRES    WAVE
                       AIR SEA DIR/SP/G            HT/PER
                 (UTC) (F)     (DEG/KT/KT) (MB)    (FT/S)
NORTHPORT PIER   2020   26     240/  7/ 17 1015.9F
SISTER BAY       1943   26     220/ 19/ 24   N/A
KEWAUNEE LAKESHO 2000   28     230/ 13/ 18 1017.0F
SHEBOYGAN LAKESH 2000   29     210/ 20/ 23 1020.3F
PORT WASHINGTON  2000   30     220/ 12     1020.3F
MILWAUKEE LAKESH 2000   27     230/ 24/ 30   N/A
KENOSHA   LAKESH 2000   28     200/ 16/ 24 1021.7F
$$

TC  - TEMPERATURE IN CELSIUS
VSB - VISIBILITY IN STATUTE MILES
WCI - WIND CHILL INDEX
HX  - HEAT INDEX




USA.gov is the U.S. government's official web portal to all federal, state and local government web resources and services.